Regional Weather Roundup
Issued by NWS Grand Forks, ND

Home | Current Version | Previous Version | Graphics & Text | Print | Product List | Glossary On
Versions: 1 2 3 4 5 6 7 8 9 10 11 12 13 14 15 16 17 18 19 20 21 22 23 24 25 26 27 28 29 30 31 32 33 34 35 36 37 38 39 40 41 42 43 44 45 46 47 48 49 50
000
ASUS43 KFGF 250831
RWRFGF
PRAIRIE TO PINES  WEATHER ROUNDUP
NATIONAL WEATHER SERVICE EASTERN NORTH DAKOTA/GRAND FORKS ND
300 AM CDT MON MAY 25 2015

 **SATELLITE DATA USED TO AUGMENT SKY COVER AT AUTOMATED STATIONS**
 *****  WEATHER ACROSS EASTERN NORTH DAKOTA  *****

CITY           SKY/WX    TMP DP  RH WIND       PRES   REMARKS
GRAND FORKS    CLOUDY    57  52  83 CALM      29.83S
GRAND FRKS AFB CLOUDY    55  51  87 NW5       29.83F
GRAND FRKS NWS   N/A     55 N/A N/A SE2         N/A
DEVILS LAKE    CLOUDY    55  50  82 N7        29.84F
FARGO          RAIN      59  56  89 N7        29.82F FOG
WAHPETON ARPT  CLOUDY    55  54  94 N8        29.78F
$$

 ***** WEATHER ACROSS CENTRAL AND WESTERN NORTH DAKOTA  *****

CITY           SKY/WX    TMP DP  RH WIND       PRES   REMARKS
BISMARCK       LGT RAIN  56  54  93 NE6       29.86F
MINOT          CLOUDY    55  48  77 CALM      29.87F
JAMESTOWN      LGT RAIN  57  55  93 NW5       29.84F FOG
MINOT AFB      CLOUDY    51  51  99 NW5       29.86F
GARRISON         N/A     57  52  83 CALM      29.87F
WILLISTON      MOCLDY    49  43  80 NE3       29.89S
DICKINSON      CLOUDY    55  49  80 E7        29.86S
HETTINGER      CLOUDY    53  51  93 NE5       29.86S
$$

 *****  OTHER AIRPORT OBSERVATIONS IN OUR AREA  *****

CITY           SKY/WX    TMP DP  RH WIND       PRES   REMARKS
WALHALLA       FAIR      50  50 100 CALM      29.85S
GRAFTON AIRPOR FAIR      57  50  77 CALM      29.83F
VALLEY CITY AR LGT RAIN  55  55 100 NW5       29.84F
CANDO          FAIR      55  48  76 NE7       29.86F
CAVALIER APRT  FAIR      55  48  76 N3        29.84S
GWINNER        NOT AVBL
SHEYENNE NWR     N/A     57  56  95 N5        29.95S
ROLLA          CLOUDY    50  48  93 N6        29.88F
 ***** THE ABOVE OBSERVATIONS ARE NON NWS ARE NOT QUALITY
       CONTROLLED AND MAY MIS-REPORT RAIN FOR SNOW...
$$

  *****  WEATHER ACROSS NORTHERN MINNESOTA  *****

CITY           SKY/WX    TMP DP  RH WIND       PRES   REMARKS
FLAG ISLAND    CLOUDY    57  54  88 NW6       29.82F
WARROAD        CLOUDY    54  50  87 CALM      29.83F
ROSEAU         CLOUDY    55  50  82 CALM      29.83F
HALLOCK        MOCLDY    54  50  87 SE3       29.83F
THF RVR FALLS  CLOUDY    57  50  77 SE3       29.84F
BAUDETTE       CLOUDY    53  51  93 CALM      29.83F
WASKISH        CLOUDY    55  54  94 CALM      29.84S
CROOKSTON      CLOUDY    61  52  72 CALM      29.84F
STEPHEN NDAWN    N/A     55  48  76 SE2         N/A
GREENBUSH NDAW   N/A     55  54  94 SW2         N/A
$$
  *****  WEATHER ACROSS CENTRAL AND WEST MINNESOTA  *****

CITY           SKY/WX    TMP DP  RH WIND       PRES   REMARKS
FOSSTON        DRIZZLE   55  50  82 CALM      29.85S
BEMIDJI        DRIZZLE   54  53  95 CALM      29.84F
PARK RAPIDS    LGT RAIN  58  54  86 NE9       29.80F
ELBOW LAKE     LGT RAIN  56  56  98 NE7       29.74F
WADENA         RAIN      55  55 100 NE10      29.76F
DETROIT LAKES  LGT RAIN  55  54  94 NE8       29.82F
MOORHEAD       LGT RAIN  57  55  94 N9        29.83S
FERGUS FALLS   RAIN      57  57 100 NE9       29.77F
MORRIS MN      LGT RAIN  57  57 100 N6        29.72F
STAPLES        RAIN      55  55 100 NE6       29.75F
$$
  *****  WEATHER ELSEWHERE ACROSS MINNESOTA  *****

CITY           SKY/WX    TMP DP  RH WIND       PRES   REMARKS
DULUTH         LGT RAIN  58  56  93 NE13      29.82F
INTRNTL FALLS  CLOUDY    51  49  92 CALM      29.83F
ELY            CLOUDY    55  48  76 CALM      29.86F
CLOQUET        LGT RAIN  57  55  94 E10       29.80F
WHEATON        DRIZZLE   55  54  94 N5        29.77F
BRAINERD       LGT RAIN  57  56  96 NE9       29.77F FOG
HIBBING        LGT RAIN  56  53  90 E3        29.85F
ALEXANDRIA     LGT RAIN  57  57 100 NE9       29.75F FOG
SAINT CLOUD    LGT RAIN  57  56  96 NE6       29.71F
MINNEAPOLIS    CLOUDY    58  57  97 E10       29.70F FOG
$$

  *****  WEATHER ACROSS SOUTH DAKOTA  *****

CITY           SKY/WX    TMP DP  RH WIND       PRES   REMARKS
SIOUX FALLS    CLOUDY    59  57  93 NW5       29.72F
BROOKINGS      CLOUDY    55  55 100 N6        29.74F
WATERTOWN      RAIN      56  55  97 N6        29.75F FOG
HURON          CLOUDY    57  57 100 N5        29.75F FOG
SISSETON         N/A     57  57 100 NE8       29.76F
ABERDEEN       RAIN      57  56  96 NE9       29.78F FOG
MITCHELL       CLOUDY    59  58  96 N6        29.76S FOG
PIERRE         CLOUDY    57  57 100 NE3       29.77S FOG
MOBRIDGE       CLOUDY    57  57 100 NE7       29.79S
RAPID CITY     CLOUDY    51  51 100 N3        29.84S FOG
$$

  *****  SOME WEATHER IN NEARBY STATES *****

CITY           SKY/WX    TMP DP  RH WIND       PRES   REMARKS
GLASGOW MT     PTCLDY    51  42  71 CALM      29.89F
GREAT FALLS MT CLEAR     44  41  89 SW5       29.93F
CHEYENNE WY    LGT RAIN  44  41  89 NW8       29.89F
SCOTTSBLUFF NE CLOUDY    51  50  96 SW7       29.82F
OMAHA NE       CLOUDY    63  60  90 S6        29.76F
DES MOINES IA  CLOUDY    64  61  90 SW10      29.76S
DAVENPORT IA   RAIN      67  64  90 SE15      29.74F FOG
CHICAGO IL     CLOUDY    73  62  68 S21       29.84F
EAU CLAIRE WI  LGT RAIN  57  55  93 E5        29.74F
LA CROSSE WI   CLOUDY    62  59  90 CALM      29.72F FOG
$$

  *****  SOME NATIONAL WEATHER *****

CITY           SKY/WX    TMP DP  RH WIND       PRES   REMARKS
LA GUARDIA NY  PTCLDY    65  51  60 S6        30.25S
RALEIGH NC     PTCLDY    65  57  75 SW6       30.32F
ATLANTA GA     MOCLDY    68  60  75 SE7       30.25F
NEW ORLEANS LA CLOUDY    75  70  84 SE7       30.02F
OKLAHOMA CITY  MOCLDY    64  63  96 S10       29.84R
ALBUQUERQUE NM CLOUDY    53  46  77 CALM      30.00S
SALT LAKE CITY MOCLDY    52  49  89 SE6       29.92S
LOS ANGELES CA PTCLDY    58  54  86 W6        29.97S
BOISE ID       CLEAR     58  46  64 SE12      29.87S
SEATTLE WA     CLOUDY    54  47  77 SW6       30.02F
$$

*** WEATHER ACROSS MANITOBA...SASKATCHEWAN AND ONTARIO ***
                ***ONTARIO***

CITY           SKY/WX    TMP DP  RH WIND       PRES   REMARKS
GERALDTON      CLEAR     50  43  76 CALM      29.91S
THUNDER BAY    CLOUDY    50  43  76 E6        29.89F
SIOUX LOOKOUT  PTCLDY    46  43  87 NE2       29.87F
TORONTO        CLOUDY    64  52  63 E5        30.12F
BIG TROUT LK   CLEAR     39  32  75 NE5       29.95R
PICKLE LAKE    NOT AVBL
DRYDEN         PTCLDY    55  48  76 NE5       29.85F
KENORA         PTCLDY    59  43  55 NE6       29.85F
$$
                *** MANITOBA***

CITY           SKY/WX    TMP DP  RH WIND       PRES   REMARKS
BRANDON        PTCLDY    48  41  76 N3        29.88F
DAUPHIN        MOCLDY    64  41  42 NW5       29.85R
ISLAND LAKE    CLEAR     46  39  76 E3        29.88S
PILOT MOUND      N/A     55  43  62 N6          N/A
THE PAS        CLEAR     46  41  81 S3        29.85F
THOMPSON       CLEAR     43  36  75 NE8       29.90R
WINNIPEG       CLEAR     55  43  62 E3        29.85F
LYNN LAKE      CLEAR     43  34  70 S2        29.87F
CHURCHILL      PTCLDY    27  25  93 SW5       30.00F WCI  21
$$
                ***SASKATCHEWAN***

CITY           SKY/WX    TMP DP  RH WIND       PRES   REMARKS
ESTEVAN        PTCLDY    52  46  82 SE2       29.90F
KINDERSLEY     MOCLDY    57  30  35 E2        29.90F
LLOYDMINSTER   MOCLDY    61  36  39 S12       29.88F
PRINCE ALBERT  CLEAR     48  39  71 CALM      29.86F
REGINA         PTCLDY    52  41  66 SE7       29.89F
YORKTON        MOCLDY    57  45  62 S8        29.87F
N. BATTLEFORD  PTCLDY    46  41  81 VRB2      29.90S
LA RONGE       CLEAR     46  34  61 SE2       29.83F
SASKATOON      CLEAR     48  41  76 NW5       29.89S
SWIFT CURRENT  MOCLDY    61  34  36 SE7       29.90F
$$
NOTE: THESE ARE AUTOMATED STATIONS WITH LIMITED QUALITY CONTROL
      "FAIR" INDICATES FEW OR NO CLOUDS BELOW 12,000 FEET WITH NO
      SIGNIFICANT WEATHER AND/OR OBSTRUCTIONS TO VISIBILITY.
      SKY/WX - SKY CONDITION AND SIGNIFICANT WEATHER.
      TMP - AIR TEMPERATURE.    DP   - DEWPOINT TEMPERATURE.
      RH  - RELATIVE HUMIDITY.  PRES - PRESSURE.
      HX  - HEAT INDEX.         WCI  - WIND CHILL INDEX.
$


USA.gov is the U.S. government's official web portal to all federal, state and local government web resources and services.